Regional Weather Roundup
Issued by NWS

Home | Current Version | Previous Version | Graphics & Text | Print | Product List | Glossary On
Versions: 1 2 3 4 5 6 7 8 9 10 11 12 13 14 15 16 17 18 19 20 21 22 23 24 25 26 27 28 29 30 31 32 33 34 35 36 37 38 39 40 41 42 43 44 45 46 47 48 49 50
000
ASUS43 KDTX 191710
RWRMI
MICHIGAN HOURLY REGIONAL WEATHER ROUNDUP
NATIONAL WEATHER SERVICE DETROIT/PONTIAC MI
1200 PM EST THU JAN 19 2017

NOTE: "FAIR" INDICATES FEW OR NO CLOUDS BELOW 12,000 FEET WITH NO
SIGNIFICANT WEATHER AND/OR OBSTRUCTION TO VISIBILITY.

MIZ047>049-052>055-059>063-066>070-074>076-081>083-191800-
SOUTHEAST LOWER MICHIGAN

CITY           SKY/WX    TMP DP  RH WIND       PRES   REMARKS
ADRIAN         CLOUDY    34  32  92 SW6       30.06F WCI  29
ALMA           CLOUDY    37  33  87 SW6       30.02F FOG     WCI  32
ANN ARBOR      CLOUDY    35  32  88 S6        30.04F WCI  30
BAD AXE        CLOUDY    33  32  96 SW8       30.03F FOG     WCI  26
CARO           CLOUDY    34  32  92 S5        30.01F FOG     WCI  30
DETROIT CITY   CLOUDY    36  32  87 S5        30.06F FOG     WCI  32
DETROIT        CLOUDY    36  31  82 SW5       30.06F WCI  32
FLINT          CLOUDY    35  31  85 SW8       30.04F WCI  29
GROSSE ILE     CLOUDY    34  32  90 S5        30.05F FOG     WCI  30
HILLSDALE      CLOUDY    32  32 100 SE3       30.01F FOG
HOWELL         CLOUDY    34  31  89 S6        30.03F FOG     WCI  29

CITY           SKY/WX    TMP DP  RH WIND       PRES   REMARKS
JACKSON        CLOUDY    36  31  82 SE6       30.02F WCI  31
LAMBERTVILLE   CLOUDY    37  33  85 CALM      30.06F FOG
LANSING        CLOUDY    36  30  79 VRB3      30.03F
LAPEER         CLOUDY    33  32  95 SW6       30.04F WCI  28
MASON          CLOUDY    34  32  94 S3        30.03F FOG
MONROE         CLOUDY    35  33  92 W5        30.06F FOG     WCI  31
MT. CLEMENS    CLOUDY    35  32  88 S5        30.04F FOG     WCI  31
PONTIAC        CLOUDY    33  30  88 SW5       30.02F WCI  29
PORT HOPE        N/A     34  33  96 VRB6      30.01F WCI  29
PORT HURON     CLOUDY    32  32 100 S3        30.06F FOG
TRI CITIES     CLOUDY    36  34  92 SW15      30.03F FOG     WCI  27
MIDLAND        CLOUDY    37  33  85 SW6       30.00F FOG     WCI  32
TROY           CLOUDY    36  31  82 CALM      30.06F
SAGINAW HB     CLOUDY    36  32  87 SW8       30.03F FOG     WCI  29
$$
MIZ043>046-050>051-056>058-064>065-071>073-077>080-191800-
SOUTHWEST LOWER MICHIGAN

CITY           SKY/WX    TMP DP  RH WIND       PRES   REMARKS
BATTLE CREEK   CLOUDY    36  34  92 SE3       30.02F
BENTON HARBOR  CLOUDY    39  35  86 E6        30.00F FOG     WCI  35
BIG RAPIDS     CLOUDY    36  32  87 SW5       29.99F FOG     WCI  32
COLDWATER      CLOUDY    36  35  96 SE6       30.02F FOG     WCI  31
FREMONT        CLOUDY    38  35  89 S3        30.00F
HOLLAND        CLOUDY    37  34  89 S5        30.03S WCI  33
GRAND RAPIDS   CLOUDY    36  32  85 E3        30.01F FOG
IONIA          CLOUDY    34  32  93 CALM      30.01F FOG
KALAMAZOO      CLOUDY    37  32  82 E5        30.02F HAZE    WCI  33
LUDINGTON      CLOUDY    36  35  94 S7        29.99F FOG     WCI  31
MARSHALL       CLOUDY    37  33  85 SE5       30.02F WCI  33
MOUNT PLEASANT CLOUDY    37  34  89 SW9       30.01F FOG     WCI  30
MUSKEGON       CLOUDY    39  35  86 S8        30.01F WCI  33
SOUTH HAVEN    CLOUDY    37  36  94 SE5       30.01F FOG     WCI  33
$$
MIZ016>042-191800-
NORTHERN LOWER MICHIGAN

CITY           SKY/WX    TMP DP  RH WIND       PRES   REMARKS
ALPENA         CLOUDY    35  31  85 S7        29.99F WCI  29
BEAVER ISLAND  CLOUDY    35  35  99 SW7       29.94F FOG     WCI  29
BELLAIRE       CLOUDY    35  33  93 S5        29.97F FOG     WCI  31
CADILLAC       FOG       32  31  97 S8        29.95F VSB 1/4 WCI  25
CHARLEVOIX     CLOUDY    35  35  99 S7        29.98F FOG     WCI  29
FRANKFORT      CLOUDY    36  35  97 S7        29.96F FOG     WCI  30
GAYLORD        FOG       35  31  85 SW9       29.94F VSB 3/4 WCI  28
GRAYLING       CLOUDY    34  33  95 S8        29.97F FOG     WCI  27
HARBOR SPRINGS CLOUDY    35  33  94 SW5       29.96F FOG     WCI  31
HOUGHTON LAKE  CLOUDY    33  32  96 SW6       29.96F FOG     WCI  28
MANISTEE       CLOUDY    36  33  89 S8        29.98F FOG     WCI  30
OSCODA         CLOUDY    36  34  92 SW6       29.99F FOG     WCI  31
PELLSTON       CLOUDY    36  32  85 S3        29.95F FOG
ROGERS CITY    CLOUDY    35  32  88 SW3       29.99F FOG
TRAVERSE CITY  CLOUDY    36  32  85 VRB6      29.96F FOG     WCI  31
$$
MIZ007>008-015-191800-
EASTERN UPPER MICHIGAN

CITY           SKY/WX    TMP DP  RH WIND       PRES   REMARKS
KINROSS        CLOUDY    36  33  89 S8        29.94F FOG     WCI  30
MACKINAC ISLAN CLOUDY    34  34 100 S3        29.95F FOG
NEWBERRY       FOG       32  32  99 S15G23    29.91F VSB 3/4 WCI  22
S. S. MARIE    CLOUDY    37  32  82 S7        29.94F HAZE    WCI  32
MUNISING         N/A     32  30  92 S8G18     29.88F WCI  25
$$
MIZ004>006-011>014-085-191800-
CENTRAL UPPER MICHIGAN

CITY           SKY/WX    TMP DP  RH WIND       PRES   REMARKS
MANISTIQUE     FOG       31  30  97 S10       29.92F VSB 1/4 WCI  22
ESCANABA       FOG       33  32  96 SW7       29.92F VSB 3/4 WCI  27
SAWYER-GWINN   FOG       30  30 100 S8        29.86S VSB 1/4 WCI  23
$$
MIZ001>003-009>011-084-191800-
WESTERN UPPER MICHIGAN

CITY           SKY/WX    TMP DP  RH WIND       PRES   REMARKS
IRON MOUNTAIN  CLOUDY    34  31  88 S7        29.85F FOG     WCI  28
HOUGHTON       FOG       31  29  92 SW6       29.81S VSB<1/4 WCI  25
COPPER HARBOR    N/A     36  30  79 SW6       29.82S WCI  31
IRONWOOD       MOSUNNY   40  34  79 S6        29.81F
$$

ABBREVIATIONS USED IN REMARKS
   TC - TEMPERATURE IN CELSIUS
  WCI - WIND CHILL INDEX
   HX - HEAT INDEX
  VSB - VISIBILITY





USA.gov is the U.S. government's official web portal to all federal, state and local government web resources and services.